Location: Dittelspoint
(48.7198°N, 10.7214°E)
Time: 10:05:21
(UTC+00:00)

Okean 3 Rocket - Pass Details

Date: 09 April 2020
Orbit: 616 x 644 km, 82.5° (Epoch: 22 May)

Event Time Altitude Azimuth Distance (km) Brightness Sun altitude
Rises 20:47:59 0° 348° (NNW) 2,914 8.0 -24.4°
Reaches altitude 10° 20:50:13 10° 347° (NNW) 2,007 7.0 -24.6°
Enters shadow 20:54:36 75° 271° (W) 654 3.6 -25.1°
